Regional Weather Roundup
Issued by NWS

Home | Current Version | Previous Version | Graphics & Text | Print | Product List | Glossary On
Versions: 1 2 3 4 5 6 7 8 9 10 11 12 13 14 15 16 17 18 19 20 21 22 23 24 25 26 27 28 29 30 31 32 33 34 35 36 37 38 39 40 41 42 43 44 45 46 47 48 49 50
000
ASUS45 KPSR 241010
RWRAZ

ARIZONA HOURLY REGIONAL WEATHER ROUNDUP
NATIONAL WEATHER SERVICE PHOENIX AZ
300 AM MST TUE APR 24 2018

NOTE: FAIR INDICATES FEW OR NO CLOUDS BELOW 12,000 FEET WITH NO
SIGNIFICANT WEATHER AND/OR OBSTRUCTIONS TO VISIBILITY.

AZZ001>003-036-241100-
NORTHWEST ARIZONA

CITY           SKY/WX    TMP DP  RH WIND       PRES   REMARKS
BULLHEAD CITY  FAIR      77  23  13 S7        29.86R
KINGMAN        FAIR      63  22  20 SW6       30.01S
$$

AZZ004>008-015-016-018-241100-
NORTH CENTRAL ARIZONA

CITY           SKY/WX    TMP DP  RH WIND       PRES   REMARKS
GRAND CANYON   FAIR      31  14  49 CALM      30.20S
WILLIAMS       FAIR      39  16  38 S7        30.18F WCI  34
PRESCOTT       FAIR      52  21  29 S7        30.12S
FLAGSTAFF      FAIR      41  17  38 W6        30.21F
PAYSON         FAIR      54  16  22 CALM      30.13S
PAGE           FAIR      63  23  21 CALM      30.04S
$$

AZZ009>014-017-241100-
NORTHEAST ARIZONA

CITY           SKY/WX    TMP DP  RH WIND       PRES   REMARKS
WINSLOW        FAIR      50  17  27 SW9       30.11S
SAINT JOHNS    FAIR      47  22  37 S7        30.14S
WINDOW ROCK    FAIR      55  14  19 W8        30.17S
SHOW LOW       FAIR      45  16  31 S7        30.20S
$$

AZZ540-542>544-546-548-241100-
GREATER PHOENIX AREA

CITY           SKY/WX    TMP DP  RH WIND       PRES   REMARKS
PHOENIX        MOCLDY    76  28  17 CALM      29.88F
BUCKEYE        FAIR      66  19  16 CALM      29.90S
DEER VALLEY    FAIR      66  24  20 N3        29.91S
SCOTTSDALE     FAIR      72  34  24 NE3       29.92F
MESA-GATEWAY   FAIR      65  23  20 E8        29.93S
$$

AZZ539-553-241100-
SOUTHWEST MARICOPA COUNTY AND PINAL COUNTY

CITY           SKY/WX    TMP DP  RH WIND       PRES   REMARKS
CASA GRANDE    FAIR      65  24  21 NE7       29.93
$$

AZZ503-504-507>509-241100-
SOUTHEAST ARIZONA

CITY           SKY/WX    TMP DP  RH WIND       PRES   REMARKS
TUCSON         FAIR      65  26  23 S5        30.02S
NOGALES        FAIR      56  24  29 CALM      30.07F
SIERRA VISTA   CLEAR     62  18  18 W9        30.12S
DOUGLAS        FAIR      54  19  25 W5        30.08S
SAFFORD        FAIR      66  18  15 VRB3      29.99S
$$

AZZ532-241100-
SOUTHWEST ARIZONA

CITY           SKY/WX    TMP DP  RH WIND       PRES   REMARKS
YUMA           NOT AVBL
$$

CAZ041-043-047-048-061-525>527-560>570-241100-
SOUTHERN CALIFORNIA

CITY           SKY/WX    TMP DP  RH WIND       PRES   REMARKS
DOWNTOWN L.A.  FAIR      54  52  93 CALM      29.98F FOG
L.A. AIRPORT   FAIR      54  51  90 CALM      30.00S FOG
SAN DIEGO      MOCLDY    58  54  86 CALM      30.00
BURBANK        FAIR      56  53  90 S3        29.98F
ONTARIO        MOCLDY    56  48  74 CALM      29.98F
RIVERSIDE      FAIR      57  50  77 CALM      29.98F
PALM SPRINGS   FAIR      73  42  32 CALM      29.87F
EL CENTRO NAS  FAIR      72  29  20 W5        29.85S
IMPERIAL       FAIR      66  39  37 NW3       29.83F
BLYTHE         FAIR      71  37  28 CALM      29.85F
NEEDLES        FAIR      81  25  12 W13       29.87S
$$

NVZ020-UTZ003-241100-
SOUTHERN NEVADA-UTAH

CITY           SKY/WX    TMP DP  RH WIND       PRES   REMARKS
LAS VEGAS      MOCLDY    76  24  14 S9        29.91R
SALT LAKE CITY FAIR      46  36  68 NW8       30.23R
$$

NMZ009-TXZ055-241100-
NEW MEXICO-WEST TEXAS

CITY           SKY/WX    TMP DP  RH WIND       PRES   REMARKS
ALBUQUERQUE    FAIR      52  23  32 SE10      30.09R
EL PASO        FAIR      61  24  24 S6        30.03R
$$


........................KEY........................
SKY/WX - SKY CONDITION/WEATHER
TMP    - TEMPERATURE IN FAHRENHEIT
DP     - DEW POINT IN FAHRENHEIT
RH     - RELATIVE HUMIDITY IN PERCENT
WIND   - DIRECTION AND SPEED IN MILES PER HOUR (MPH)
VRB    - VARIABLE WIND DIRECTION
PRES   - MEAN SEA LEVEL PRESSURE IN INCHES OF MERCURY
         F - FALLING PRESSURE   R - RISING PRESSURE
         S - STEADY PRESSURE
VSB    - VISIBILITY IN MILES
HX     - HEAT INDEX IN FAHRENHEIT
WCI    - WIND CHILL INDEX IN FAHRENHEIT
TC     - TEMPERATURE IN CELSIUS WHICH IS ALSO KNOWN AS
         TEMPERATURE IN CENTIGRADE
AFB    - AIR FORCE BASE
         LUKE AFB IS LUKE AIR FORCE BASE
         DAVIS-MONTHAN IS DAVIS-MONTHAN AIR FORCE BASE
NAS    - NAVAL AIR STATION
         EL CENTRO NAS IS EL CENTRO NAVAL AIR STATION
N/A    - NOT AVAILABLE




USA.gov is the U.S. government's official web portal to all federal, state and local government web resources and services.